Cork, Ireland

9:57 AM IST on March 26, 2017 (GMT +0100)
Cork

Weather History for EICK - July, 2013

Change the Weather History Date:

Sunday, July 7, 2013

  Actual Average Record
Temperature  
Mean Temperature 66 °F -  
Max Temperature 76 °F 65 °F 76 °F (2013)
Min Temperature 57 °F 52 °F 46 °F (1996)
Cooling Degree Days 2    
Growing Degree Days 16 (Base 50)    
Moisture  
Dew Point 60 °F    
Average Humidity 84    
Maximum Humidity 100    
Minimum Humidity 57    
Precipitation  
Precipitation 0.00 in 0.09 in - ()
Sea Level Pressure  
Sea Level Pressure 30.52 in    
Wind  
Wind Speed 6 mph ()    
Max Wind Speed 12 mph    
Max Gust Speed -    
Visibility 5.6 miles    
Events Fog    
Averages and records for this station are not official NWS values.
T = Trace of Precipitation, MM = Missing Value Source: Averaged Metar Reports

Daily Weather History Graph

Daily Weather History Graph

Search for Another Location

Airport or City:

Trip Planner

Search our weather history database for the weather conditions in past years. The results will help you decide how hot, cold, wet, or windy it might be!

Date:

Astronomy

Jul. 07, 2013 Rise Set
Actual Time 5:24 AM IST 9:53 PM IST
Civil Twilight 4:37 AM IST 10:39 PM IST
Nautical Twilight 3:25 AM IST 11:50 PM IST
Astronomical Twilight 2:11 AM IST 1:06 AM IST
Moon 4:57 AM IST (7/7) 8:57 PM IST (7/7)
Length of Visible Light 18h 02m
Length of Day
16h 28m
Waning Crescent, 1% of the Moon is Illuminated
Jul 7
Waning Crescent
Jul 8
New
Jul 16
First Quarter
Jul 22
Full
Jul 29
Last Quarter

Hourly Weather History & Observations

Time (IST) Temp. Dew Point Humidity Pressure Visibility Wind Dir Wind Speed Gust Speed Precip Events Conditions
12:00 AM 64.4 °F 59.0 °F 83% 30.48 in 6.2 mi NW 5.8 mph - N/A   Scattered Clouds
12:30 AM 62.6 °F 59.0 °F 88% 30.48 in 6.2 mi NW 6.9 mph - N/A   Scattered Clouds
1:00 AM 63 °F 59 °F 83% 30.49 in 28 mi NW 6.7 mph - -   Scattered Clouds
1:00 AM 62.6 °F 59.0 °F 88% 30.48 in 6.2 mi NW 6.9 mph - N/A   Scattered Clouds
1:30 AM 62.6 °F 59.0 °F 88% 30.48 in 6.2 mi NW 6.9 mph - N/A   Scattered Clouds
2:00 AM 60.8 °F 59.0 °F 94% 30.48 in 6.2 mi NW 6.9 mph - N/A   Scattered Clouds
2:30 AM 60.8 °F 59.0 °F 94% 30.48 in 6.2 mi NW 8.1 mph - N/A   Scattered Clouds
3:00 AM 60.8 °F 59.0 °F 94% 30.48 in 6.2 mi NNW 8.1 mph - N/A   Scattered Clouds
3:30 AM 60.8 °F 59.0 °F 94% 30.48 in 6.2 mi NW 6.9 mph - N/A   Scattered Clouds
4:00 AM 60.8 °F 59.0 °F 94% 30.48 in 6.2 mi NNW 8.1 mph - N/A   Scattered Clouds
4:30 AM 59.0 °F 59.0 °F 100% 30.48 in 6.2 mi NNW 8.1 mph - N/A   Scattered Clouds
5:00 AM 59.0 °F 57.2 °F 94% 30.48 in 0.5 mi NW 6.9 mph - N/A Fog Fog
5:30 AM 57.2 °F 57.2 °F 100% 30.48 in 0.2 mi NNW 8.1 mph - N/A Fog Fog
6:00 AM 57.2 °F 57.2 °F 100% 30.48 in 0.1 mi NW 6.9 mph - N/A Fog Fog
6:30 AM 57.2 °F 57.2 °F 100% 30.48 in 0.1 mi NNW 9.2 mph - N/A Fog Fog
7:00 AM 58 °F 58 °F 100% 30.51 in 0 mi NW 8.9 mph - - Fog Partial Fog
7:00 AM 59.0 °F 59.0 °F 100% 30.51 in 0.1 mi NW 8.1 mph - N/A Fog Fog
7:30 AM 59.0 °F 59.0 °F 100% 30.51 in 0.2 mi NNW 6.9 mph - N/A Fog Fog
8:00 AM 59.0 °F 59.0 °F 100% 30.51 in 0.4 mi NNW 6.9 mph - N/A   Unknown
8:30 AM 60.8 °F 60.8 °F 100% 30.54 in 3.1 mi North 4.6 mph - N/A Fog Fog
9:00 AM 62.6 °F 62.6 °F 100% 30.54 in 5.0 mi NNW 8.1 mph - N/A   Partly Cloudy
9:30 AM 66.2 °F 62.6 °F 88% 30.54 in 6.2 mi NNW 5.8 mph - N/A   Partly Cloudy
10:00 AM 66.2 °F 62.6 °F 88% 30.54 in 6.2 mi NNW 3.5 mph - N/A   Partly Cloudy
10:30 AM 68.0 °F 62.6 °F 83% 30.54 in 6.2 mi North 4.6 mph - N/A   Partly Cloudy
11:00 AM 69.8 °F 62.6 °F 78% 30.54 in 6.2 mi NNW 5.8 mph - N/A   Partly Cloudy
11:30 AM 71.6 °F 62.6 °F 73% 30.54 in 6.2 mi Variable 2.3 mph - N/A   Partly Cloudy
12:00 PM 73.4 °F 64.4 °F 73% 30.54 in 6.2 mi NE 5.8 mph - N/A   Partly Cloudy
12:30 PM 73.4 °F 62.6 °F 69% 30.54 in 6.2 mi NE 4.6 mph - N/A   Scattered Clouds
1:00 PM 74 °F 62 °F 57% 30.54 in 16 mi ENE 6.7 mph - -   Partly Cloudy
1:00 PM 73.4 °F 60.8 °F 65% 30.54 in 6.2 mi ENE 5.8 mph - N/A   Scattered Clouds
1:30 PM 75.2 °F 62.6 °F 65% 30.54 in 6.2 mi ESE 5.8 mph - N/A   Scattered Clouds
2:00 PM 77.0 °F 64.4 °F 65% 30.54 in 6.2 mi East 6.9 mph - N/A   Scattered Clouds
2:30 PM 73.4 °F 64.4 °F 73% 30.54 in 6.2 mi ESE 10.4 mph - N/A   Scattered Clouds
3:00 PM 73.4 °F 64.4 °F 73% 30.54 in 6.2 mi East 9.2 mph - N/A   Scattered Clouds
3:30 PM 73.4 °F 64.4 °F 73% 30.54 in 6.2 mi ESE 10.4 mph - N/A   Scattered Clouds
4:00 PM 73.4 °F 64.4 °F 73% 30.54 in 6.2 mi ESE 11.5 mph - N/A   Partly Cloudy
4:30 PM 71.6 °F 64.4 °F 78% 30.54 in 6.2 mi ESE 11.5 mph - N/A   Partly Cloudy
5:00 PM 71.6 °F 62.6 °F 73% 30.54 in 6.2 mi ESE 11.5 mph - N/A   Partly Cloudy
5:30 PM 69.8 °F 60.8 °F 73% 30.54 in 6.2 mi ESE 10.4 mph - N/A   Partly Cloudy
6:00 PM 69.8 °F 60.8 °F 73% 30.54 in 6.2 mi SE 9.2 mph - N/A   Partly Cloudy
6:30 PM 68.0 °F 59.0 °F 73% 30.54 in 6.2 mi SE 9.2 mph - N/A   Partly Cloudy
7:00 PM 67 °F 58 °F 66% 30.54 in 19 mi ESE 8.9 mph - -   Scattered Clouds
7:00 PM 68.0 °F 59.0 °F 73% 30.54 in 6.2 mi ESE 9.2 mph - N/A   Partly Cloudy
7:30 PM 66.2 °F 59.0 °F 78% 30.54 in 6.2 mi ESE 6.9 mph - N/A   Partly Cloudy
8:00 PM 66.2 °F 59.0 °F 78% 30.54 in 6.2 mi ESE 6.9 mph - N/A   Partly Cloudy
8:30 PM 66.2 °F 60.8 °F 83% 30.54 in 6.2 mi ESE 4.6 mph - N/A   Partly Cloudy
9:00 PM 64.4 °F 59.0 °F 83% 30.54 in 6.2 mi ESE 5.8 mph - N/A   Partly Cloudy
9:30 PM 62.6 °F 59.0 °F 88% 30.54 in 6.2 mi ESE 4.6 mph - N/A   Partly Cloudy
10:00 PM 60.8 °F 59.0 °F 94% 30.57 in 6.2 mi East 4.6 mph - N/A   Partly Cloudy
10:30 PM 60.8 °F 59.0 °F 94% 30.57 in 6.2 mi East 4.6 mph - N/A   Partly Cloudy
11:00 PM 60.8 °F 59.0 °F 94% 30.57 in 6.2 mi East 4.6 mph - N/A   Partly Cloudy
11:30 PM 60.8 °F 59.0 °F 94% 30.57 in 6.2 mi ENE 4.6 mph - N/A   Partly Cloudy